User: anonymous   Login
Location: Unspecified
(0.0000°N, 0.0000°E)
Time: 10:33:46
(UTC+02:00)
Language:

Cosmos 2251 - Orbit

View from above orbital plane
View from above orbital plane
View from above satellite
View from above satellite

Ground track
Ground track

The orbit data is extracted from the following two-line orbital elements,

1 22675U 93036A   16235.87582864 -.00000002  00000-0  89788-5 0  9996
2 22675  74.0389  40.5188 0025847 233.4994 126.3776 14.32479864211319
Epoch (UTC): 22 August 2016 21:01:11
Eccentricity: 0.0025847
inclination: 74.0389°
perigee height: 765 km
apogee height: 802 km
right ascension of ascending node: 40.5188°
argument of perigee: 233.4994°
revolutions per day: 14.32479864
mean anomaly at epoch: 126.3776°
orbit number at epoch: 21131

The dashed part of the orbit path shows where the satellite is in the earth's shadow,  

DLR